{"data":{"norad_id":33409,"intl_designator":"2008-053B","name":"SHIJIAN-6 03B (SJ-6 03B)","alt_names":[],"object_type":"PAYLOAD","status":"ACTIVE","operator":null,"country":"PRC","launch_date":"2008-10-25","launch_site_code":"TAISC","launch_vehicle":null,"mission":null,"orbit_class":"UNKNOWN","rcs_meters":2.3517,"size_class":null,"mass_kg":null,"dimensions":null,"purposes":[],"wikipedia_slug":null,"has_3d_model":false,"image_url":null,"decayed_at":null,"tle_current":{"epoch":"2026-09-20T05:06:04.105728Z","epoch_age_seconds":46714,"freshness":"FRESH","line1":"1 33409U 08053B   26263.21254752  .00001600  00000+0  11841-3 0  9996","line2":"2 33409  97.8555 284.6823 0020453  80.6116 279.7421 15.04512069977030","mean_motion":15.04512069,"eccentricity":0.0020453,"inclination_deg":97.8555,"raan_deg":284.6823,"arg_perigee_deg":80.6116,"mean_anomaly_deg":279.7421,"bstar":0.00011841,"rev_number":97703,"period_min":95.712093619636,"perigee_km":538.82758202575,"apogee_km":567.18010676383,"semimajor_km":6931.1408443948,"source":"CELESTRAK","updated_at":"2026-09-20T09:00:13.699694Z"}}}